Orbital Elements at Epoch 2459200.5 (2020-Dec-17.0) TDB
Reference: JPL 28 (heliocentric ecliptic J2000)
Element | Value | Uncertainty (1-sigma) | Units |
e | .196810686928014 | 3.3236e-08 | |
a | 3.077928545757598 | 1.6945e-08 | au |
q | 2.472159314351702 | 1.0819e-07 | au |
i | .8074008025171131 | 3.5327e-06 | deg |
node | 136.77884475812 | 0.00031775 | deg |
peri | 176.2613897576555 | 0.00031795 | deg |
M | 323.5982404541613 | 1.2884e-05 | deg |
tp | 2459399.937169963735 (2021-Jul-04.43716996) | 7.1405e-05 | TDB |
period | 1972.360184856837 5.40 | 1.6288e-05 4.459e-08 | d yr |
n | .1825224432960912 | 1.5073e-09 | deg/d |
Q | 3.683697777163494 | 2.028e-08 | au |
|
| | Orbit Determination Parameters
Additional Information
|